Location: Gleizolles
(44.4833°N, 6.7667°E)
Time: 21:27:29
(UTC+00:00)

Explorer 7 - Pass Details

Date: 21 June 2024
Orbit: 465 x 619 km, 50.3° (Epoch: 19 July)

Event Time Altitude Azimuth Distance (km) Brightness Sun altitude
Rises 15:21:08 0° 297° (WNW) 2,547 10.9 39.8°
Reaches altitude 10° 15:23:22 10° 301° (WNW) 1,649 10.1 39.4°
Maximum altitude 15:27:02 58° 21° (NNE) 553 7.2 38.7°
Drops below altitude 10° 15:30:36 10° 102° (ESE) 1,614 8.8 38.1°
Sets 15:32:46 0° 106° (ESE) 2,488 9.7 37.7°
